Location: Unspecified
(0.0000°N, 0.0000°E)
Time: 15:07:39
(UTC+00:00)

STARLINK-34025 - Visible Passes

Search period start: 15 June 2025 00:00
Search period end: 25 June 2025 00:00
Orbit: 443 x 445 km, 43.0° (Epoch: 15 June)

Date Brightness Start Highest point End Pass type
(mag) Time Alt. Az. Time Alt. Az. Time Alt. Az.
21 Jun 5.3 18:26:04 10° SE 18:26:39 10° SE 18:27:15 10° SE visible
21 Jun 5.7 20:01:15 10° WSW 20:02:20 18° WSW 20:02:20 18° WSW visible
22 Jun 3.5 19:20:43 10° SW 19:24:13 65° NW 19:26:53 16° NE visible
23 Jun 3.1 18:40:19 10° SW 18:43:50 79° SE 18:47:21 10° NE visible
